Regional Weather Roundup
Issued by NWS Pendleton, OR

Home | Current Version | Previous Version | Text Only | Print | Product List | Glossary On
Versions: 1 2 3 4 5 6 7 8 9 10 11 12 13 14 15 16 17 18 19 20 21 22 23 24 25 26 27 28 29 30 31 32 33 34 35 36 37 38 39 40 41 42 43 44 45 46 47 48 49 50
000
ASUS46 KPDT 220225
RWRPDT
PENDLETON REGIONAL WEATHER ROUNDUP
NATIONAL WEATHER SERVICE PENDLETON OREGON
600 PM PST TUE NOV 21 2017

NOTE: FAIR INDICATES FEW OR NO CLOUDS BELOW 12,000 FEET WITH NO
SIGNIFICANT WEATHER AND/OR OBSTRUCTIONS TO VISIBILITY.

# INDICATES UNOFFICIAL STATION AND DATA

WAZ520-220310-
EAST SLOPES OF WASHINGTON CASCADES

CITY            SKY/WX      TMP DP  RH  WIND    PRES   REMARKS
#BULLFROG       N/A         35  35  100 CALM    N/A
#CLE ELUM HS    N/A         36  34  92  CALM    30.00S
#CLE ELUM LAKE  N/A         34  33  96  CALM    30.09R
#EASTON DOT     N/A         35  34  96  N5      N/A
#GLENWOOD       N/A         40  39  96  CALM    30.10S
#NELSON 3SW     N/A         32  31  96  CALM    30.32S
#NILE           N/A         37  36  96  CALM    29.35R
#TEANAWAY 4NE   N/A         36  36  100 CALM    N/A
#TROUT LAKE 1NE N/A         41  40  96  CALM    30.10F
#TROUT LAKE 1E  N/A         41  40  96  CALM    30.09S
$$

WAZ521-220310-
SIMCOE HIGHLANDS

CITY            SKY/WX      TMP DP  RH  WIND    PRES   REMARKS
#BICKLETON HS   N/A         N/A N/A N/A CALM    30.01F
#CENTERVILLE 1SWN/A         39  34  82  CALM    30.07S
#GOLDENDALE 4W  N/A         41  39  93  CALM    30.09F
#GOODNOE HILLS  N/A         41  41  100 W8      N/A
#LYLE 6NE       N/A         40  39  96  SW1     30.11R
#PITT 4SE       N/A         38  37  96  CALM    30.12R
$$

WAZ026-220310-
KITTITAS VALLEY

CITY            SKY/WX      TMP DP  RH  WIND    PRES   REMARKS
ELLENSBURG AP   CLOUDY      38  36  92  NW5     30.06S FOG
#ELLENSBURG CWU N/A         36  35  96  CALM    30.03F
#ELLENSBURG 3NE N/A         36  35  96  CALM    28.14S
#ELLENSBURG 1E  N/A         36  35  96  CALM    30.14F
#KITTITAS 3S    N/A         36  35  96  CALM    30.09F
#MANASTASH RDG  N/A         36  36  100 CALM    N/A
#RYEGRASS DOT   N/A         36  34  92  W5      N/A
$$

WAZ027-220310-
YAKIMA VALLEY

CITY            SKY/WX      TMP DP  RH  WIND    PRES   REMARKS
SUNNYSIDE AP    CLOUDY      39  39  100 CALM    30.09R
YAKIMA AIRPORT  CLOUDY      43  40  89  W3      30.07S
YAKIMA-VAGABOND CLOUDY      40  38  92  CALM    30.04S
#DONALD 2NE     N/A         40  32  73  N2      28.92R
#GRANDVIEW      N/A         40  38  92  CALM    30.05R
#MABTON         N/A         41  39  93  CALM    30.06F
#MOXEE 2E       N/A         47  N/A N/A CALM    29.83R
#NACHES 2SW     N/A         39  38  96  NE2     30.04F
#OUTLOOK DOT    N/A         41  41  100 CALM    30.04S
#PARKER DOT     N/A         42  40  93  S2      30.06F
#TERRACE HTS    N/A         40  38  92  CALM    30.06S
#TOPPENISH      N/A         42  40  93  CALM    30.01F
#I82 S UMTANUM RN/A         39  37  92  NE3     N/A
#UNION GAP DOT  N/A         41  40  96  N2      30.10F
#W YAKIMA       N/A         39  38  96  NW1     30.10R
#WHITE SWAN 5E  N/A         40  39  96  CALM    30.10S
#WILEY CITY 3W  N/A         40  36  85  CALM    30.02F
#ZILLAH DOT     N/A         41  N/A N/A CALM    N/A
$$

WAZ028-220310-
LOWER COLUMBIA BASIN...WASHINGTON

CITY            SKY/WX      TMP DP  RH  WIND    PRES   REMARKS
PASCO           MOCLDY      42  41  96  W5      30.09S
PROSSER AWOS    N/A         41  41  100 CALM    30.12R
RICHLAND AWOS   MOCLDY      42  41  96  CALM    30.10R
#BENTON CITY    N/A         40  39  96  CALM    30.00S
#CONNELL 5N     N/A         39  38  96  CALM    30.09F
#CONNELL 5NW    N/A         39  38  96  NW6     30.04F
#ELTOPIA 6NW    N/A         39  38  96  CALM    29.03S
#KAHLOTUS       N/A         41  40  96  CALM    30.07F
#KENNEWICK 3S   N/A         41  39  93  CALM    30.10S
#PATERSON       N/A         42  40  93  E1      30.07S
#PROSSER DOT    N/A         42  41  96  CALM    30.09F
#SAGEMOOR 2W    N/A         40  38  92  NW2     29.96S
#TOUCHET 2S     N/A         41  39  93  NW2     30.08R
#WEST PASCO     N/A         42  40  93  CALM    30.09S
$$

WAZ029-220310-
FOOTHILLS OF THE BLUES...WASHINGTON

CITY            SKY/WX      TMP DP  RH  WIND    PRES   REMARKS
WALLA WALLA AP  CLOUDY      41  40  96  W5      30.05S FOG
#CLYDE 6NW      N/A         41  40  96  SW3     30.06F
#DAYTON SCHOOL  N/A         45  40  82  W7      30.02S
#DELANEY DOT    N/A         44  42  93  N1      30.05F
#LOWDEN 2SE     N/A         41  40  96  W2      30.04S
#PLEASANT VIEW 1N/A         41  40  96  W2      30.10S
#PRESCOTT       N/A         44  42  93  CALM    30.07S
#WHITMAN COLLEGEN/A         40  39  96  W1      30.13R
#WAITSBURG 5S   N/A         39  38  96  SW5     30.16R
#WAITSBURG 6SSE N/A         48  45  89  W3      30.04S
#WAITSBURG 8N   N/A         44  N/A N/A S6      30.06S
#WALLA WALLA 5E N/A         41  39  93  CALM    N/A
#WHITMAN MISSIONN/A         42  40  93  CALM    30.10R
$$

WAZ030-220310-
BLUE MOUNTAINS...WASHINGTON

CITY            SKY/WX      TMP DP  RH  WIND    PRES   REMARKS
#DIXIE 5SE      N/A         60  47  62  S18G26  29.97R
$$

ORZ009-041-WAZ024-220310-
COLUMBIA RIVER GORGE

CITY            SKY/WX      TMP DP  RH  WIND    PRES   REMARKS
HOOD RIVER AP   LGT RAIN    43  43  100 CALM    30.09F
THE DALLES AP   LGT RAIN    46  44  93  W3      30.10S
#ARLINGTON AIRPON/A         42  40  93  E1      30.11S
#ARLINGTON HS   N/A         44  40  86  CALM    29.99F
#CELILO DOT     N/A         46  41  83  S1      N/A
#LYLE           N/A         46  44  93  CALM    30.12S
#MURDOCK        N/A         45  44  96  CALM    30.06F
#RUFUS DOT      N/A         46  N/A N/A SW1     N/A
#SMITHVILLE     N/A         45  44  96  CALM    30.05F

$$

ORZ510-220310-
NORTH CENTRAL OREGON

CITY            SKY/WX      TMP DP  RH  WIND    PRES   REMARKS
#ANTELOPE       N/A         52  47  83  CALM    29.91S
#CHENOWITH 1W   N/A         39  37  92  E1      N/A
#COW CYN RST AREN/A         56  N/A N/A SW6     N/A
#DUFUR          N/A         41  40  96  CALM    30.06S
#DUFUR 9E       N/A         38  37  96  W3      30.14S
#GRASS VALLEY 1SN/A         40  39  96  CALM    30.05S
#KENT DOT       N/A         43  38  82  SW7     N/A
#MAUPIN SCHOOL  N/A         47  43  86  CALM    30.11S
#MORO SCHOOL    N/A         40  40  100 CALM    30.05R
#SHANIKO 5WSW   N/A         55  N/A N/A S16     N/A
#SHANIKO 4NW    N/A         55  45  69  S17G26  30.04F
#TYGH VALLEY 2NEN/A         45  43  93  CALM    30.07S
#WAPANITIA AIRPON/A         43  41  93  CALM    30.09F
#WASCO DOT      N/A         41  40  96  CALM    N/A
#WASCO 5NE      N/A         39  23  52  CALM    30.10F
$$

ORZ511-220310-
CENTRAL OREGON

CITY            SKY/WX      TMP DP  RH  WIND    PRES   REMARKS
BEND AIRPORT    CLOUDY      59  46  62  S10     30.11R
PRINEVILLE AP   CLOUDY      59  46  62  S6      30.11R
REDMOND AIRPORT CLOUDY      61  46  58  S9      30.09R
#ASHWOOD SCHOOL N/A         62  47  58  SE2     29.99S
#BEND 1SW       N/A         52  48  86  CALM    N/A
#BEND-AWBREY    N/A         55  49  80  SW6     30.05R
#BEND-KIM LN    N/A         56  48  74  NE2     29.98R
#CULVER         N/A         62  47  58  E10     29.87R
#CULVER 8W      N/A         59  45  60  SW7     30.06R
#LAKE BILLY CHINN/A         60  N/A N/A SE6     30.11S
#MADRAS 4S      N/A         62  14  15  S20     N/A
#POWELL BUTTE   N/A         61  45  56  S8      30.05R
#PRINEVILLE     N/A         62  47  58  CALM    30.13R
#PRINEVILLE 3N  N/A         58  48  69  SE3     30.05R
#WARM SPRINGS   N/A         48  45  89  CALM    29.89F

$$


ORZ509-220310-
EAST SLOPES OF OREGON CASCADES

CITY            SKY/WX      TMP DP  RH  WIND    PRES   REMARKS
SISTERS AWOS    N/A         57  46  67  CALM    N/A
#BLUE BOX PASS  N/A         48  N/A N/A SW6     N/A
#CAMP SHERMAN   N/A         54  47  77  SW2     30.08F
#LA PINE 4NW    N/A         50  45  83  CALM    30.13R
#LAVA BUTTE DOT N/A         51  42  71  CALM    N/A
#SISTERS ODOT   N/A         55  47  74  CALM    N/A
#SISTERS 3N     N/A         52  45  77  E3      30.06S
#SUNRIVER       N/A         51  48  89  S1      30.09R
#TUMALO 3W      N/A         55  47  74  S7      29.91S
#WANOGA BUTTE D N/A         42  42  100 W10     N/A

$$

ORZ044-220310-
LOWER COLUMBIA BASIN...OREGON

CITY            SKY/WX      TMP DP  RH  WIND    PRES   REMARKS
HERMISTON       CLOUDY      42  41  96  CALM    30.06F
#BOARDMAN SCHOOLN/A         44  41  89  CALM    30.07S
#BOARDMAN 8SW   N/A         42  40  93  N1      30.10R
#ECHO 8SW       N/A         42  42  100 CALM    30.07F
#I-84 EX 198 DOTN/A         41  41  100 E6      N/A
#IONE SCHOOL    N/A         42  29  60  CALM    30.10S
#UMATILLA       N/A         44  40  86  CALM    30.01F
$$

ORZ507-220310-
NORTHERN FOOTHILLS OF THE BLUES

CITY            SKY/WX      TMP DP  RH  WIND    PRES   REMARKS
PENDLETON AIRPT FOG         40  40  100 NW13    30.04S VSB 1/4 WCI 32
#ADAMS 3WNW     N/A         45  43  93  CALM    30.05S
#ATHENA         N/A         49  43  80  CALM    30.08R
#CAYUSE         N/A         43  42  96  W2      30.06R
#HELIX SCHOOL   N/A         45  43  93  CALM    30.06S
#HELIX 3N       N/A         46  43  89  CALM    30.01S
#HOLDMAN 5SE    N/A         41  39  93  W5      30.04R
#HOLDMAN 6E     N/A         41  40  96  CALM    29.86F
#M-F GROVE ELEM N/A         40  38  92  CALM    30.03R
#M-FREEWATER 5SEN/A         41  38  89  SW6     30.04R
#PENDLETON DNTN N/A         44  41  89  CALM    30.01S
#PDT AQUATIC CTRN/A         43  43  100 W3      30.09S
#PDT SUNRIDGE   N/A         43  41  93  NW1     30.06R
#PENDLETON 6SE  N/A         43  42  96  NE2     30.03R
#PENDLETON 7NW  N/A         42  38  86  CALM    30.07F
#PILOT ROCK 1S  N/A         65  45  48  SE9     30.01F
#PILOT ROCK     N/A         44  40  86  CALM    30.05R
#TUTUILLA       N/A         43  41  93  CALM    30.09R
#UMAPINE 2E     N/A         41  39  93  CALM    30.04R
#WESTON SCHOOL  N/A         62  48  60  SW13    29.96S

$$

ORZ508-220310-
SOUTHERN FOOTHILLS OF THE BLUES

CITY            SKY/WX      TMP DP  RH  WIND    PRES   REMARKS
LEXINGTON       CLOUDY      41  41  100 W3      30.09R FOG
#AJAX           N/A         39  33  79  N2      30.20R
#CONDON 5W      N/A         51  44  77  S7      30.02R
#HEPPNER EOC    N/A         39  38  96  W2      29.99S
#HEPPNER 4NE    N/A         55  47  74  S1      30.03F
#LEXINGTON 2SE  N/A         42  39  89  CALM    30.01S
#MIKKALO        N/A         40  38  92  CALM    30.16R
#OLEX 4N        N/A         41  39  93  CALM    30.05F
#RUGGS 5NE      N/A         60  46  60  E7      30.20S
#RUGGS 2SW      N/A         58  48  69  SW9     30.04S

$$

ORZ502-503-220310-
BLUE MOUNTAINS

CITY            SKY/WX      TMP DP  RH  WIND    PRES   REMARKS
MEACHAM         CLOUDY      48  46  93  CALM    30.12S
#BATTLE MTN DOT N/A         48  45  89  S8      N/A
#GRANITE        N/A         44  43  96  CALM    30.23F
#GREENHORN 9SW  N/A         46  45  96  CALM    26.36F
#HARDMAN 10S    N/A         49  46  89  S6      30.22S
#LADD CYN SMT   N/A         49  46  89  SE16G24 N/A    WCI 43
#LADD CREEK ODOTN/A         51  45  80  S8      N/A
#LONG CREEK HS  N/A         57  48  72  SW20G29 30.11F
#N POWDER DOT   N/A         47  45  93  NW3     N/A
#PIKES PEAK     N/A         59  45  60  CALM    27.99S
#TOLLGATE       N/A         43  42  96  S1      29.98S
#TROY SCHOOL    N/A         41  39  93  CALM    30.05F
#UKIAH          N/A         45  43  93  CALM    30.04F
#WESTON 4E      N/A         54  49  83  SE7     30.03F
$$

ORZ505-220310-
JOHN DAY BASIN

CITY            SKY/WX      TMP DP  RH  WIND    PRES   REMARKS
JOHN DAY        PTCLDY      60  46  60  S13     30.16S
#ANTELOPE 9ESE  N/A         47  43  86  CALM    N/A
#DAYVILLE SCHOOLN/A         56  47  72  CALM    30.06F
#MITCHELL 8NW   N/A         60  44  55  E3      30.08S
#MONUMENT HS    N/A         49  46  89  CALM    30.03F
#MT. VERNON 5SE N/A         54  47  77  NE7     30.10F
#WINLOCK        N/A         58  53  83  CALM    30.04S
$$

ORZ506-220310-
OCHOCO AND JOHN DAY HIGHLANDS

CITY            SKY/WX      TMP DP  RH  WIND    PRES   REMARKS
#HORSE RIDGE DO N/A         55  44  66  S9      N/A
#PAULINA ODOT   N/A         55  45  69  S3      N/A
#PINE MTN OBS   N/A         47  44  89  S24G39  N/A    WCI 39
#SENECA         N/A         49  N/A N/A CALM    N/A
#SENECA 9NW     N/A         48  46  93  CALM    30.16R
$$

ORZ049-220310-
GRANDE RONDE VALLEY

CITY            SKY/WX      TMP DP  RH  WIND    PRES   REMARKS
LA GRANDE       CLOUDY      53  47  80  S26G30  30.14F
#COVE SCHOOL    N/A         49  48  96  CALM    30.14F
#COVE 6NW       N/A         52  48  86  SE5     30.15F
#ELGIN 3N       N/A         50  47  89  CALM    30.55R
#IMBLER SCHOOL  N/A         49  46  89  S1      30.09F
#ISLAND CITY 4N N/A         57  56  96  S5      29.96S
#LADD CYN DOT   N/A         53  49  86  S18G28  N/A
#UNION 1S       N/A         53  48  83  SE12    30.16S
$$

ORZ050-220310-
WALLOWA COUNTY

CITY            SKY/WX      TMP DP  RH  WIND    PRES   REMARKS
JOSEPH AIRPORT  LGT RAIN    48  45  89  CALM    30.15F
#ENTERPRISE HS  N/A         44  42  93  CALM    30.07F
#IMNAHA SCHOOL  N/A         43  41  93  N1      30.14F
#IMNAHA 10S     N/A         54  47  77  CALM    30.13F
#JOSEPH         N/A         48  46  93  CALM    30.56F
#JOSEPH 3N      N/A         46  43  89  E5      30.15F
#JOSEPH 3W      N/A         47  47  100 SW3     29.98F
#LOSTINE        N/A         39  36  89  CALM    30.01F
#LOSTINE 3SE    N/A         40  39  96  W1      30.18F
#MT HOWARD 8000 N/A         39  36  89  SW13G24 30.23R WCI 31
#PROMISE 1S     N/A         44  43  96  CALM    30.27F
#WALLOWA SCHOOL N/A         39  38  96  CALM    30.11F



$$



USA.gov is the U.S. government's official web portal to all federal, state and local government web resources and services.